Temperature
22 20 21 20 20 20 20 20 20 20 20 20 20 20 20 20 20 20 19 19 19 19 19 18 18 18 18 18 18 18 18 18 18 18 18 18 18 17 17 17 17 17 17
22 20 21 21 20 20 20 20 20 20 20 20 20 20 20 20 20 19 19 19 19 19 19 18 18 18 18 18 18 18 18 18 18 18 18 17 17 17 17 17 17 17 17
21 20 21 20 20 20 20 20 20 20 20 20 20 20 20 20 19 19 19 19 19 19 19 19 18 18 18 18 18 18 18 18 18 18 17 17 17 17 17 17 17 17 17
21 20 20 20 20 20 20 20 20 20 20 20 20 20 20 20 19 19 19 19 19 19 19 19 19 19 19 19 18 18 18 18 18 17 17 17 17 17 17 17 17 17 17
21 20 20 20 20 20 20 20 20 20 20 20 20 20 20 20 19 19 19 19 19 19 19 19 19 19 19 19 18 18 18 18 18 17 17 17 17 18 17 17 17 17 17
20 20 20 20 20 20 20 20 20 20 20 20 20 20 20 20 19 19 19 19 19 19 19 19 19 19 19 19 18 18 18 18 17 17 17 17 17 18 17 17 17 17 17
21 20 20 20 20 20 20 20 20 20 20 20 20 20 20 19 19 19 19 19 19 19 18 18 18 18 19 19 18 18 18 18 17 18 17 17 17 18 17 17 17 17 17
21 20 19 20 20 20 20 20 20 20 20 20 20 20 20 19 19 19 19 19 19 18 18 18 18 18 18 18 18 18 18 18 17 18 17 17 17 17 17 17 17 17 17
21 20 19 19 20 20 20 20 20 20 20 20 20 19 19 19 19 19 19 19 19 18 18 18 18 18 18 18 18 18 18 18 17 17 18 17 18 18 17 17 17 17 17
21 20 19 19 19 19 19 19 20 20 20 19 19 19 19 19 19 19 19 18 18 18 18 18 18 18 18 18 18 18 18 18 17 18 18 18 18 18 18 17 17 17 17
20 19 19 19 19 18 18 19 19 19 19 19 19 19 19 18 18 18 18 18 18 18 18 18 18 18 18 18 18 18 18 17 18 18 18 18 18 18 18 17 17 17 17
19 19 19 19 19 19 19 18 18 18 19 19 18 18 18 18 18 18 17 18 18 18 18 18 18 18 18 17 18 18 18 18 18 19 18 18 18 18 18 18 17 17 17
19 19 19 19 19 19 19 18 18 18 18 18 18 18 18 18 18 18 18 18 18 18 18 17 17 17 17 17 18 18 18 18 18 18 18 18 18 18 18 18 17 17 17
19 19 19 19 19 19 19 18 18 18 18 18 18 18 18 18 18 18 18 18 18 17 17 17 17 17 17 17 17 17 17 17 18 18 18 18 18 18 18 18 17 17 17
19 18 19 19 19 19 19 18 18 18 18 18 18 18 18 18 18 18 18 18 18 17 17 17 17 17 17 17 17 17 17 17 17 17 17 17 18 18 18 18 18 17 17
19 19 19 19 19 19 19 19 18 18 18 18 18 18 18 18 18 17 17 17 17 17 17 17 17 17 17 17 17 17 17 17 17 17 17 17 17 18 18 18 18 18 18
19 19 19 19 19 19 18 18 18 18 18 18 17 17 17 17 17 17 17 17 17 16 16 16 16 16 16 16 16 16 16 16 17 17 17 17 17 17 18 18 18 18 18
19 19 19 18 18 18 18 18 17 17 17 17 17 17 17 17 17 17 16 16 16 16 16 16 16 16 16 16 16 16 16 16 16 16 17 17 17 17 17 17 18 18 18
18 18 18 18 18 18 18 18 17 17 17 17 17 17 17 16 16 16 16 16 16 16 16 16 16 15 16 16 16 16 16 16 16 16 16 17 17 17 17 17 17 18 18
18 18 18 18 18 18 17 18 17 17 17 17 16 16 16 16 16 16 16 15 15 15 15 15 15 15 15 15 16 16 16 16 16 16 16 17 16 16 16 16 16 17 17
18 18 18 18 18 18 17 17 17 17 16 16 16 16 16 15 15 15 15 15 15 15 15 15 15 15 15 15 15 16 16 16 17 16 16 16 16 16 16 16 16 16 16
18 18 18 18 17 17 17 17 17 17 16 16 16 15 15 15 15 15 14 14 14 14 14 14 14 14 15 15 15 16 17 17 17 17 16 16 16 16 16 16 16 16 16
18 18 18 17 17 17 17 16 16 16 16 16 15 15 14 14 14 14 14 14 14 14 14 14 13 14 14 14 15 15 16 17 17 17 16 16 15 15 16 16 16 16 16
18 18 17 17 17 17 16 16 16 16 16 16 15 15 14 14 13 13 13 13 13 13 13 13 14 13 13 14 14 14 14 15 15 16 16 16 15 15 15 15 15 15 15
18 18 17 17 17 16 16 16 15 15 15 15 14 14 13 14 13 13 12 12 12 12 12 12 12 12 13 13 14 14 14 14 14 14 15 16 16 16 15 15 15 15 15
18 18 17 17 16 16 16 15 15 14 14 14 13 13 13 14 13 13 12 12 12 12 12 11 12 12 12 12 13 13 14 14 14 14 15 15 15 16 15 15 15 15 15
Wind_Speed
14 18 20 16 14 14 14 15 16 17 16 16 15 15 14 13 12 11 10 9 8 7 7 6 7 7 7 8 8 9 10 10 10 10 11 11 12 12 13 13 13 15 16
17 20 21 16 15 14 14 14 15 15 15 15 15 14 13 12 11 10 9 8 7 6 6 6 6 7 7 8 8 9 9 9 9 10 11 12 12 12 11 8 6 16 15
18 20 20 16 15 14 14 14 14 14 14 14 14 13 12 11 11 10 9 8 6 5 5 5 5 6 6 7 7 7 8 8 8 8 9 11 12 11 10 9 14 16 15
18 19 19 18 15 14 14 14 14 14 14 13 13 12 12 11 10 9 8 7 6 5 5 5 5 5 6 6 6 6 6 7 7 7 7 9 11 12 10 11 13 14 15
16 17 18 18 15 14 14 13 13 13 13 12 12 11 10 10 9 8 7 7 6 5 5 5 5 5 5 5 5 5 5 6 6 7 5 7 10 12 11 12 12 13 14
16 16 19 17 15 14 13 13 12 12 12 11 10 10 9 9 8 7 7 6 6 5 5 5 4 5 5 5 5 5 5 5 9 5 5 5 9 12 11 11 12 12 13
16 15 19 16 15 14 13 13 12 12 11 11 10 9 8 8 7 7 6 6 5 5 4 5 5 5 5 5 5 5 5 5 8 3 5 5 9 12 11 11 12 12 13
15 15 17 16 14 13 13 12 12 11 11 10 9 9 8 8 7 7 7 6 6 5 5 5 5 5 6 6 6 6 6 8 7 5 5 5 11 10 10 11 12 12 12
14 13 15 15 14 13 12 11 11 11 10 10 9 8 8 8 8 7 7 7 7 7 6 6 6 6 7 7 7 7 7 8 9 5 6 6 12 10 10 11 12 12 12
12 12 12 12 12 12 12 12 11 10 10 10 9 8 7 8 9 9 10 10 8 8 7 7 8 8 8 9 9 9 8 10 12 9 7 8 13 11 11 12 12 13 13
10 9 10 10 10 10 10 11 12 11 10 10 10 9 8 8 9 10 10 7 8 9 8 8 9 9 10 12 12 11 10 12 12 10 8 11 13 13 13 13 14 14 15
11 10 8 7 7 7 6 7 8 8 8 8 7 7 7 6 7 7 3 5 8 9 9 10 10 10 12 11 13 14 12 13 12 10 8 14 12 13 15 15 16 16 17
10 9 7 6 6 5 4 4 4 5 4 6 6 5 6 6 6 6 5 5 7 9 9 7 9 9 10 9 8 9 12 11 10 10 9 16 14 15 16 17 18 19 19
8 7 6 6 5 5 4 3 3 4 3 4 4 4 5 4 5 5 4 5 5 5 5 6 6 7 9 10 10 10 12 12 11 10 9 14 15 16 17 18 19 20 21
7 7 6 5 5 5 4 3 3 3 3 4 3 4 5 5 5 5 4 5 6 6 6 6 7 7 8 9 10 11 12 14 14 13 11 13 17 18 19 19 20 21 23
7 6 5 5 5 5 4 3 2 3 3 3 3 3 5 6 5 4 5 5 6 6 6 6 6 6 7 7 9 10 12 13 13 14 15 14 19 20 21 21 21 22 23
6 6 5 5 5 4 4 4 4 4 3 3 2 3 4 6 5 5 5 5 5 6 6 6 7 7 7 7 9 10 10 12 13 14 16 15 15 20 23 23 23 23 24
5 6 5 4 4 4 3 4 3 3 2 2 2 3 3 4 5 5 5 5 5 6 6 5 7 7 7 7 7 8 9 9 12 13 15 15 15 15 19 25 25 24 25
5 5 5 3 3 3 3 3 3 2 2 2 2 2 3 4 5 5 5 4 5 5 5 7 6 7 7 7 8 8 9 9 10 12 13 15 16 16 16 18 25 26 26
5 4 4 3 3 2 2 2 2 2 2 2 2 2 3 3 4 5 5 5 7 6 6 6 7 7 7 8 9 9 9 10 10 11 12 12 14 17 18 18 18 22 27
5 5 3 3 3 2 1 2 2 2 2 2 2 2 3 4 4 5 6 4 6 7 7 8 8 8 8 7 8 9 9 11 10 9 9 10 12 14 16 17 17 17 18
5 4 4 3 3 2 1 2 2 3 3 3 3 2 3 4 4 5 4 7 6 6 8 8 8 9 8 7 8 9 9 9 7 8 7 8 10 9 11 15 16 16 16
5 4 3 2 2 3 3 3 3 3 4 4 4 4 4 4 5 6 7 8 7 9 8 7 8 10 9 8 8 8 8 9 6 6 6 7 7 7 9 9 13 15 16
5 5 3 3 3 3 4 4 5 6 7 6 6 5 5 6 7 7 8 8 8 9 8 9 9 8 9 10 8 8 9 9 8 9 8 7 7 8 9 9 9 11 14
4 4 4 3 3 3 4 4 6 7 7 7 6 6 7 7 7 8 8 8 8 9 9 9 9 10 9 10 10 9 9 9 11 10 11 9 8 8 7 8 8 8 11
4 3 3 3 3 3 4 5 6 7 7 8 8 9 8 7 7 7 8 8 9 9 9 10 10 11 10 11 10 10 10 9 9 9 11 11 10 9 8 7 8 7 9
Wind_Direction
155 146 144 153 155 153 152 155 158 159 159 157 155 153 152 150 148 145 142 138 131 124 111 98 90 90 93 93 94 100 107 109 110 111 112 114 118 121 124 133 143 119 119
148 145 145 152 153 153 152 150 152 155 158 157 155 153 153 152 150 148 146 142 137 130 117 103 93 91 91 94 98 102 109 114 116 119 126 124 121 123 128 134 109 118 128
145 144 150 149 150 150 149 147 146 148 152 154 154 153 152 152 152 151 149 148 146 141 128 114 103 99 98 101 105 110 114 118 123 137 165 140 124 126 125 114 109 125 131
145 147 153 146 149 148 146 145 144 145 146 147 149 150 152 152 153 154 156 156 157 153 142 132 122 115 112 114 116 120 123 124 132 183 175 129 132 128 133 128 128 133 135
143 145 144 149 151 149 146 144 144 144 144 144 146 148 151 154 156 161 164 167 170 168 160 152 142 134 130 128 128 131 136 137 167 221 119 124 125 133 142 140 139 138 139
146 150 146 154 153 152 149 146 144 144 145 147 148 150 154 159 165 170 172 175 179 181 178 169 160 152 148 147 148 148 152 169 212 167 133 144 133 144 152 150 149 147 145
151 149 148 155 155 156 155 153 152 151 152 153 155 158 163 169 177 183 186 187 189 192 190 182 179 173 169 170 172 173 180 212 247 157 158 148 127 146 161 161 158 155 153
151 151 144 154 158 160 161 162 161 160 160 162 165 169 176 182 190 197 202 205 205 208 208 203 200 195 189 190 192 195 204 238 230 193 186 151 126 156 171 171 167 165 162
154 149 153 162 164 165 167 170 169 168 169 171 176 182 189 197 204 211 216 221 222 223 221 219 218 216 205 204 208 211 218 243 261 220 199 171 144 171 185 183 178 176 174
156 156 158 165 166 173 175 175 177 177 179 180 184 192 201 210 216 219 226 220 230 236 234 233 231 227 220 215 215 219 224 235 243 229 212 168 153 184 196 195 191 188 185
159 161 167 167 170 180 181 172 182 185 187 192 197 198 210 226 225 217 230 210 231 243 242 241 242 239 234 222 218 220 225 238 234 236 221 148 164 193 204 204 201 198 195
166 170 172 175 165 186 189 175 197 200 193 211 213 208 222 238 251 251 193 215 241 248 249 242 244 243 242 237 214 210 231 236 249 237 214 151 176 201 209 210 208 205 203
167 173 174 174 170 189 192 199 209 218 209 220 222 228 241 248 248 251 243 222 234 241 247 237 237 244 244 249 248 226 239 246 243 245 222 168 188 208 216 215 213 210 208
163 171 176 177 180 191 204 214 230 233 230 241 226 241 249 256 258 256 250 248 243 243 247 253 252 254 258 256 250 250 249 247 248 248 233 180 196 212 221 222 218 214 211
164 175 179 187 191 196 200 230 243 261 260 252 257 252 258 256 258 260 257 257 257 251 243 246 252 254 260 259 255 249 249 247 247 249 245 201 205 214 221 226 226 221 216
163 170 180 194 193 193 203 213 235 256 249 257 244 250 257 259 262 262 253 252 257 261 268 265 263 262 262 262 262 259 256 254 249 246 249 232 213 215 221 225 227 226 222
156 159 174 184 188 196 216 227 228 234 242 246 246 244 254 262 264 266 262 257 261 263 261 263 271 270 264 263 260 260 257 255 252 249 249 249 237 220 218 222 225 226 224
144 152 167 170 166 184 203 228 239 245 245 255 254 253 251 260 264 270 273 272 270 264 263 263 262 265 267 269 268 265 261 255 253 253 252 247 246 243 223 218 221 223 224
135 145 157 157 163 181 196 216 224 231 247 247 245 252 256 264 267 264 273 282 269 264 263 266 271 275 275 275 271 261 262 258 254 250 249 249 245 243 242 222 215 220 223
137 142 151 161 160 177 195 206 229 228 233 249 266 281 281 279 274 280 274 277 277 271 266 267 275 269 274 274 276 276 269 267 260 254 251 248 245 242 241 240 226 221 219
142 136 148 165 162 188 209 244 245 248 250 249 254 274 282 289 287 284 292 290 278 278 279 278 276 271 268 273 274 272 265 255 253 255 251 255 251 247 245 241 236 232 222
148 150 166 178 182 210 209 270 280 292 278 280 285 272 276 284 290 286 299 292 287 286 273 272 270 278 277 267 272 283 279 267 235 248 247 246 255 257 252 244 238 234 236
161 172 173 180 208 228 239 246 248 247 255 253 262 261 273 286 288 298 296 295 300 287 281 281 275 266 272 271 262 270 281 283 295 267 260 260 263 266 261 254 243 235 231
176 181 187 207 227 237 245 259 273 282 289 300 293 292 289 280 285 288 289 289 288 288 288 276 271 275 268 269 261 254 263 283 283 282 269 261 258 263 267 264 257 242 234
191 195 199 210 229 244 260 268 274 281 291 292 296 292 289 285 280 283 287 290 287 282 285 288 289 277 272 268 270 265 259 256 255 265 276 280 274 268 264 261 258 253 244
201 205 208 205 224 248 262 274 280 291 295 299 296 296 290 287 283 282 286 285 281 283 282 276 275 270 269 274 273 271 264 261 261 264 269 272 275 276 277 274 264 257 248
Height
1528 1530 1530 1534 1537 1540 1543 1546 1548 1550 1552 1553 1555 1556 1557 1558 1559 1560 1561 1562 1562 1563 1564 1564 1565 1565 1565 1566 1566 1566 1566 1566 1566 1566 1566 1566 1567 1567 1568 1569 1570 1571 1571
1528 1529 1531 1535 1538 1541 1544 1547 1549 1551 1553 1554 1556 1557 1559 1560 1561 1561 1562 1563 1564 1564 1565 1565 1566 1566 1566 1567 1567 1567 1567 1567 1567 1568 1568 1569 1569 1570 1571 1571 1573 1573 1573
1529 1530 1532 1536 1539 1542 1545 1548 1550 1552 1554 1556 1557 1558 1560 1561 1562 1563 1563 1564 1565 1565 1566 1566 1567 1567 1567 1568 1568 1568 1568 1569 1569 1570 1570 1572 1572 1572 1572 1573 1574 1575 1576
1531 1533 1535 1537 1541 1544 1546 1549 1551 1553 1555 1557 1558 1559 1561 1562 1563 1563 1564 1565 1565 1566 1566 1567 1567 1568 1568 1569 1569 1569 1570 1570 1571 1571 1574 1575 1574 1573 1574 1575 1576 1577 1578
1533 1535 1536 1539 1542 1545 1547 1550 1552 1554 1556 1558 1559 1560 1561 1562 1563 1564 1565 1565 1566 1567 1567 1568 1568 1569 1569 1569 1570 1570 1571 1571 1572 1573 1576 1576 1576 1575 1576 1577 1578 1579 1580
1534 1537 1538 1541 1544 1546 1549 1551 1553 1555 1557 1558 1560 1561 1562 1563 1564 1565 1565 1566 1567 1567 1568 1568 1569 1569 1570 1570 1571 1571 1572 1573 1573 1577 1577 1577 1577 1576 1577 1578 1579 1580 1581
1537 1540 1540 1542 1545 1548 1550 1552 1554 1556 1557 1559 1560 1561 1562 1563 1564 1565 1566 1566 1567 1568 1568 1568 1569 1569 1570 1571 1571 1572 1572 1573 1575 1578 1578 1578 1577 1577 1578 1579 1580 1582 1583
1539 1542 1541 1544 1546 1549 1551 1553 1555 1556 1558 1559 1560 1561 1562 1563 1564 1565 1566 1566 1567 1568 1568 1569 1569 1570 1570 1571 1571 1572 1573 1574 1576 1578 1578 1579 1577 1577 1578 1580 1581 1583 1584
1541 1543 1543 1545 1547 1549 1552 1554 1555 1556 1558 1559 1560 1561 1562 1563 1564 1565 1565 1566 1567 1567 1568 1568 1569 1569 1570 1570 1571 1572 1572 1573 1575 1578 1579 1578 1577 1578 1579 1580 1581 1583 1584
1542 1544 1545 1548 1549 1551 1552 1554 1555 1557 1558 1559 1560 1561 1562 1563 1563 1564 1565 1565 1566 1566 1567 1568 1568 1569 1569 1570 1570 1571 1572 1573 1575 1577 1578 1578 1577 1577 1578 1580 1581 1583 1584
1542 1545 1547 1549 1550 1552 1554 1554 1555 1556 1557 1558 1559 1560 1561 1563 1564 1564 1564 1564 1565 1565 1566 1566 1567 1567 1568 1568 1569 1569 1570 1572 1575 1576 1576 1575 1576 1577 1578 1579 1580 1582 1583
1541 1544 1547 1549 1550 1552 1554 1554 1555 1557 1557 1558 1560 1560 1560 1561 1562 1563 1563 1563 1563 1564 1564 1565 1565 1565 1566 1567 1567 1567 1569 1570 1572 1573 1574 1572 1574 1575 1576 1578 1579 1581 1582
1541 1544 1546 1548 1548 1550 1552 1554 1555 1556 1557 1557 1558 1558 1558 1559 1560 1560 1561 1561 1561 1562 1562 1563 1563 1564 1564 1565 1566 1566 1567 1569 1569 1570 1570 1569 1571 1572 1574 1575 1577 1579 1580
1541 1543 1545 1547 1547 1549 1551 1553 1554 1555 1555 1556 1556 1556 1557 1557 1558 1558 1558 1558 1559 1559 1559 1560 1560 1561 1561 1562 1562 1562 1563 1564 1565 1566 1566 1565 1566 1568 1570 1572 1574 1576 1578
1541 1543 1544 1545 1546 1547 1549 1550 1552 1553 1553 1554 1554 1554 1554 1555 1555 1556 1555 1555 1556 1556 1557 1557 1557 1557 1557 1558 1558 1558 1558 1559 1560 1561 1561 1560 1561 1563 1565 1568 1570 1572 1574
1540 1542 1543 1544 1546 1546 1547 1549 1550 1551 1551 1551 1551 1552 1552 1552 1552 1552 1552 1552 1552 1553 1553 1553 1553 1553 1553 1553 1553 1553 1553 1554 1554 1554 1555 1556 1556 1557 1560 1562 1564 1567 1569
1540 1541 1542 1544 1545 1546 1547 1548 1548 1548 1549 1549 1549 1549 1549 1550 1549 1550 1550 1549 1549 1550 1549 1549 1549 1549 1549 1549 1548 1548 1548 1548 1548 1548 1549 1550 1551 1551 1553 1555 1558 1561 1564
1539 1540 1541 1543 1543 1545 1545 1546 1547 1548 1548 1547 1548 1548 1547 1547 1547 1547 1547 1546 1546 1546 1547 1546 1546 1546 1546 1545 1544 1544 1544 1543 1542 1542 1543 1543 1545 1546 1547 1548 1551 1554 1557
1539 1540 1541 1542 1543 1545 1545 1545 1546 1546 1546 1546 1547 1547 1546 1545 1544 1544 1544 1543 1543 1543 1543 1543 1543 1542 1542 1541 1541 1540 1539 1538 1537 1537 1537 1538 1539 1539 1541 1542 1543 1546 1549
1540 1541 1542 1543 1543 1544 1545 1545 1546 1545 1546 1545 1545 1545 1544 1543 1543 1542 1542 1541 1541 1540 1540 1539 1538 1538 1538 1537 1537 1536 1534 1533 1533 1532 1532 1533 1533 1533 1535 1536 1537 1538 1541
1541 1541 1542 1543 1544 1544 1545 1546 1546 1546 1545 1545 1544 1543 1542 1542 1541 1540 1540 1538 1537 1537 1536 1536 1535 1535 1534 1534 1533 1532 1530 1529 1528 1527 1527 1527 1527 1528 1528 1529 1530 1532 1533
1542 1542 1542 1543 1544 1544 1544 1544 1544 1544 1544 1543 1543 1541 1540 1539 1538 1538 1536 1536 1535 1533 1532 1531 1531 1531 1531 1530 1530 1529 1526 1525 1523 1523 1523 1522 1522 1522 1522 1523 1523 1524 1526
1542 1542 1543 1543 1543 1543 1543 1543 1543 1542 1541 1542 1541 1540 1538 1536 1535 1534 1533 1532 1531 1531 1530 1528 1527 1527 1527 1527 1526 1526 1524 1521 1520 1520 1519 1519 1517 1517 1517 1516 1516 1517 1518
1542 1542 1542 1541 1541 1541 1541 1542 1541 1541 1541 1540 1538 1537 1535 1533 1532 1531 1530 1528 1527 1527 1526 1525 1524 1523 1522 1522 1522 1521 1521 1520 1519 1517 1516 1515 1513 1512 1512 1511 1511 1511 1512
1541 1541 1541 1540 1540 1539 1539 1539 1539 1539 1538 1537 1535 1534 1532 1531 1528 1527 1526 1524 1523 1522 1521 1520 1519 1518 1518 1518 1518 1517 1516 1516 1515 1515 1512 1511 1510 1509 1508 1507 1506 1506 1506
1539 1539 1539 1538 1538 1538 1537 1536 1536 1535 1534 1533 1531 1530 1529 1527 1525 1524 1522 1520 1519 1518 1517 1515 1514 1514 1513 1513 1512 1513 1512 1512 1511 1510 1509 1507 1506 1505 1504 1502 1502 1501 1501